Regional Weather Roundup
Issued by NWS

Home | Current Version | Previous Version | Graphics & Text | Print | Product List | Glossary On
Versions: 1 2 3 4 5 6 7 8 9 10 11 12 13 14 15 16 17 18 19 20 21 22 23 24 25 26 27 28 29 30 31 32 33 34 35 36 37 38 39 40 41 42 43 44 45 46 47 48 49 50
000
ASUS43 KIND 250509
RWRIN

WEATHER ROUNDUP FOR INDIANA
NATIONAL WEATHER SERVICE INDIANAPOLIS IN
100 AM EDT TUE APR 25 2017

NOTE: "FAIR" INDICATES FEW OR NO CLOUDS BELOW 12,000 FEET WITH NO
SIGNIFICANT WEATHER AND/OR OBSTRUCTIONS TO VISIBILITY.

* - STATION DOES NOT REPORT WEATHER SUCH AS PRECIPITATION OR FOG.

+ - STATION NOT QUALITY CONTROLLED BY THE NATIONAL WEATHER SERVICE.
    USE DATA WITH CAUTION...ESPECIALLY DEWPOINT AND RELATIVE
    HUMIDITY OBSERVATIONS.

INZ001>003-010>013-019-020-250600-
NORTHWEST INDIANA

CITY           SKY/WX    TMP DP  RH WIND       PRES   REMARKS
GARY /AIRPORT/ PTCLDY    62  33  34 E9        29.77F
KNOX *+        CLEAR     57  12  17 E13       29.78S
LA PORTE +     PTCLDY    55  38  52 E8        29.79S
MICHIGAN CITY+ CLEAR     57  34  41 SE8G16    29.79S
MONTICELLO +   CLEAR     59  41  51 E8        29.77R
RENSSELAER +   CLEAR     55  37  50 E9        29.77R
VALPARAISO     CLEAR     56  39  53 E6        29.79R

$$

LMZ046-743>745-250600-
SOUTHERN LAKE MICHIGAN

STATION/POSITION TIME  TEMP    WIND        PRES    WAVE
                       AIR SEA DIR/SP/G            HT
                 (UTC) (F)     (DEG/KT/KT) (MB)    (FT)
BURNS HARBOR     0440   62     120/ 13/ 20 1008.8R
MICHIGAN CITY    0440   60     100/ 11/ 13   N/A

$$

INZ004-005-014>016-021>024-250600-
NORTH CENTRAL INDIANA

CITY           SKY/WX    TMP DP  RH WIND       PRES   REMARKS
GOSHEN         CLEAR     53  38  56 SE8       29.81F
LOGANSPORT +   CLEAR     52  41  66 E8        29.80R
PERU/GRISSOM   CLEAR     57  45  64 E6        29.78S
ROCHESTER +    CLEAR     59  41  51 E7        29.80S
SOUTH BEND     CLEAR     56  37  49 SE12      29.82S
WARSAW +       PTCLDY    54  39  58 E6        29.81S

$$

INZ006>009-017-018-025>027-250600-
NORTHEAST INDIANA

CITY           SKY/WX    TMP DP  RH WIND       PRES   REMARKS
ANGOLA *+      CLEAR     52  43  71 E6        29.83F
AUBURN +       CLEAR     54  43  66 E6        29.83F
FORT WAYNE     PTCLDY    52  42  69 E8        29.82F
HUNTINGTON +   CLEAR     53  41  64 E5        29.80F
KENDALLVILLE + CLEAR     53  41  65 E8        29.83S

$$

INZ028-029-035-036-043>045-051>053-250600-
WEST CENTRAL INDIANA

CITY           SKY/WX    TMP DP  RH WIND       PRES   REMARKS
CRAWFORDSVL +  CLEAR     58  51  78 SE8       29.76S
GREENCASTLE +  CLEAR     59  50  72 SE8       29.77R
LAFAYETTE      CLEAR     55  45  68 E7        29.76R
TERRE HAUTE    CLEAR     53  46  77 CALM      29.75R

$$

INZ030>032-037>040-046>048-054>057-064-065-250600-
CENTRAL INDIANA

CITY           SKY/WX    TMP DP  RH WIND       PRES   REMARKS
CP ATTERBURY + CLEAR     59  50  72 SE3       29.78S
FISHERS *+     CLEAR     59  54  82 SE7       29.78S
FRANKFORT +    CLEAR     60  50  69 SE9       29.79R
GREENWOOD *+   CLEAR     60  50  70 SE3       29.79S
INDIANAPOLIS   CLEAR     60  51  72 SE9       29.77F
-EAGLE CREEK   CLEAR     63  50  62 SE6       29.77S
KOKOMO +       CLEAR     56  45  66 E7        29.80S
MARION +       CLEAR     55  48  76 SE7       29.80F
MT COMFORT *+  CLEAR     57  50  77 SE6       29.79S
SHELBYVILLE    CLEAR     61  50  67 SE6       29.78S
ZIONSVILLE +   PTCLDY    60  50  70 SE10      29.79S

$$

INZ033-034-041-042-049-050-058-059-250600-
EAST CENTRAL INDIANA

CITY           SKY/WX    TMP DP  RH WIND       PRES   REMARKS
MUNCIE         CLEAR     60  51  72 SE12      29.80F
RICHMOND +     PTCLDY    54  50  87 SE12      29.82F

$$

INZ060-061-067>069-081>083-085>088-250600-
SOUTHWEST INDIANA

CITY           SKY/WX    TMP DP  RH WIND       PRES   REMARKS
EVANSVILLE     CLEAR     60  49  66 CALM      29.75S
HUNTINGBURG *+ CLEAR     58  52  80 SE6       29.77R
WASHINGTON +   CLEAR     58  48  69 MISG      29.76R

$$

INZ062-063-066-070>080-084-089>092-250600-
SOUTH CENTRAL AND SOUTHEAST INDIANA

CITY           SKY/WX    TMP DP  RH WIND       PRES   REMARKS
BEDFORD +      CLEAR    N/A N/A N/A E6        29.76F
BLOOMINGTON    CLEAR     62  51  67 SE9       29.77S
MADISON *+     CLOUDY    61  50  67 E5        29.80F
NORTH VERNON + CLOUDY    63  52  67 E6        29.78F
SEYMOUR +      CLEAR     61  52  72 SE7       29.77F

$$




USA.gov is the U.S. government's official web portal to all federal, state and local government web resources and services.